Regional Weather Roundup
Issued by NWS

Home | Current Version | Previous Version | Text Only | Print | Product List | Glossary Off
Versions: 1 2 3 4 5 6 7 8 9 10 11 12 13 14 15 16 17 18 19 20 21 22 23 24 25 26 27 28 29 30 31 32 33 34 35 36 37 38 39 40 41 42 43 44 45 46 47 48 49 50

306
ASUS45 KBOI 121510
RWRID

IDAHO REGIONAL WEATHER ROUNDUP
NATIONAL WEATHER SERVICE BOISE ID
800 AM MST TUE DEC 12 2017

NOTE: "FAIR" INDICATES FEW OR NO CLOUDS BELOW 12000 FEET
WITH NO SIGNIFICANT WEATHER AND/OR OBSTRUCTIONS TO VISIBILITY

IDZ012-014-121600-
SOUTHWEST IDAHO


CITY           SKY/WX    TMP DP  RH WIND       PRES   REMARKS
BOISE          CLOUDY    23  21  92 N5        30.67R WCI  17
CALDWELL       NOT AVBL
MOUNTAIN HOME  FOG       22  22 100 CALM      30.67S VSB 3/4
$$

IDZ016-017-121600-
SOUTHCENTRAL IDAHO


CITY           SKY/WX    TMP DP  RH WIND       PRES   REMARKS
BURLEY         FOG       20  17  88 CALM      30.58R VSB 1/4
JEROME         HAZE      23  18  81 CALM      30.59F VSB 1/4
TWIN FALLS     FOG       21  19  92 CALM      30.58F VSB 1/4
$$

IDZ019>023-121600-
SOUTHEAST IDAHO


CITY           SKY/WX    TMP DP  RH WIND       PRES   REMARKS
IDAHO FALLS    CLOUDY    10   7  87 NE5       30.56R WCI   2
POCATELLO      FOG       10   8  92 E5        30.58R VSB 1/4 WCI   2
REXBURG        CLOUDY     8   5  87 E5        30.55S WCI   0
$$

IDZ006-010-011-018-031-032-121600-
CENTRAL IDAHO MOUNTAINS


CITY           SKY/WX    TMP DP  RH WIND       PRES   REMARKS
MCCALL         PTCLDY     3  -1  83 CALM      30.52S
HAILEY         PTCLDY    23  12  63 N7        30.43F WCI  15
STANLEY        NOT AVBL
SALMON         LGT SNOW  13  11  92 CALM      30.69S FOG
CHALLIS        CLEAR      6   1  80 SE5       30.59S WCI  -3
$$

IDZ002-004-006-007-026-121600-
NORTHERN IDAHO


CITY           SKY/WX    TMP DP  RH WIND       PRES   REMARKS
LEWISTON       CLOUDY    28  24  85 E7        30.62S WCI  21
LOWELL           N/A     26  24  92 CALM      30.64F
COEUR D`ALENE  CLOUDY    26  25  96 CALM      30.55F FOG
MULLAN PASS    PTCLDY    28  21  75 NW7       30.40R WCI  21
$$




USA.gov is the U.S. government's official web portal to all federal, state and local government web resources and services.